DW1254 Weather Reports


Display with metric or nautical units.
time (UTC)temp
F
wind
direction
speed
MPH
gust
MPH
rain 1hr
in
rain 24hr
in
rain mn
in
humidity
%
barometer
mb
20181215071208 37 0 0.0 0.0 0.00 0.00 0.00 47 1023.3
20181215070308 37 0 0.0 0.0 0.00 0.00 0.00 46 1023.3
20181215065408 37 0 0.0 0.0 0.00 0.00 0.00 45 1023.3
20181215064508 37 0 0.0 0.0 0.00 0.00 0.00 45 1023.3
20181215063608 38 0 0.0 0.0 0.00 0.00 0.00 44 1023.1
20181215062708 39 0 0.0 0.0 0.00 0.00 0.00 43 1023.1
20181215061808 39 0 0.0 1.0 0.00 0.00 0.00 42 1023.2
20181215060908 39 0 0.0 1.0 0.00 0.00 0.00 41 1023.3
20181215060008 39 0 0.0 0.0 0.00 0.00 0.00 40 1023.4
20181215055108 40 0 0.0 0.0 0.00 0.00 0.00 40 1023.5
20181215054207 41 0 0.0 0.0 0.00 0.00 0.00 39 1023.8
20181215053308 42 0 0.0 0.0 0.00 0.00 0.00 37 1024.0
20181215052408 41 0 0.0 0.0 0.00 0.00 0.00 37 1024.2
20181215051508 41 0 0.0 0.0 0.00 0.00 0.00 39 1024.0
20181215050607 42 0 0.0 0.0 0.00 0.00 0.00 37 1024.0
20181215045707 43 0 0.0 0.0 0.00 0.00 0.00 36 1024.2
20181215044808 43 0 0.0 0.0 0.00 0.00 0.00 36 1024.2
20181215043908 43 0 0.0 0.0 0.00 0.00 0.00 35 1024.3
20181215043007 43 0 0.0 0.0 0.00 0.00 0.00 36 1024.3
20181215042107 43 0 0.0 0.0 0.00 0.00 0.00 36 1024.4
20181215041207 43 0 0.0 0.0 0.00 0.00 0.00 37 1024.5
20181215040307 43 0 0.0 0.0 0.00 0.00 0.00 37 1024.5
20181215035407 44 0 0.0 0.0 0.00 0.00 0.00 37 1024.1
20181215034507 44 0 0.0 0.0 0.00 0.00 0.00 36 1024.1
20181215033607 45 0 0.0 0.0 0.00 0.00 0.00 35 1024.5
20181215032708 45 0 0.0 0.0 0.00 0.00 0.00 35 1024.3
20181215031807 46 0 0.0 2.0 0.00 0.00 0.00 35 1024.6
20181215030907 46 0 0.0 0.0 0.00 0.00 0.00 35 1024.8
20181215030007 46 0 0.0 3.0 0.00 0.00 0.00 34 1024.3
20181215025107 46 75 1.0 2.0 0.00 0.00 0.00 33 1024.3
20181215024207 46 0 0.0 5.0 0.00 0.00 0.00 33 1024.3
20181215023307 46 0 0.0 0.0 0.00 0.00 0.00 35 1024.4
20181215022407 45 0 0.0 2.0 0.00 0.00 0.00 35 1024.2
20181215021507 45 0 0.0 3.0 0.00 0.00 0.00 35 1024.3
20181215020607 45 0 0.0 0.0 0.00 0.00 0.00 34 1024.5
20181215015707 46 0 0.0 0.0 0.00 0.00 0.00 32 1024.9
20181215014807 47 0 0.0 0.0 0.00 0.00 0.00 32 1024.7
20181215013907 47 0 0.0 3.0 0.00 0.00 0.00 31 1024.5
20181215013007 47 0 0.0 1.0 0.00 0.00 0.00 31 1024.5
20181215012107 47 0 0.0 1.0 0.00 0.00 0.00 32 1024.6
20181215011207 47 0 0.0 3.0 0.00 0.00 0.00 33 1024.5
20181215010307 47 0 0.0 3.0 0.00 0.00 0.00 32 1024.5
20181215005407 47 0 0.0 4.0 0.00 0.00 0.00 33 1023.9
20181215004507 47 0 0.0 4.0 0.00 0.00 0.00 34 1024.0
20181215003607 46 0 0.0 3.0 0.00 0.00 0.00 38 1024.1
20181215002707 46 0 0.0 0.0 0.00 0.00 0.00 40 1024.3
20181215001806 47 0 0.0 0.0 0.00 0.00 0.00 40 1024.4
20181215000906 48 0 0.0 0.0 0.00 0.00 0.00 39 1024.4
20181215000008 48 0 0.0 0.0 0.00 0.00 0.00 38 1024.6
20181214235106 49 0 0.0 0.0 0.00 0.00 0.00 38 1024.5
20181214234207 50 0 0.0 0.0 0.00 0.00 0.00 37 1024.8
20181214233306 51 0 0.0 1.0 0.00 0.00 0.00 35 1024.8
20181214232406 52 0 0.0 0.0 0.00 0.00 0.00 33 1024.9
20181214231507 52 0 0.0 2.0 0.00 0.00 0.00 31 1024.9
20181214230607 52 86 1.0 5.0 0.00 0.00 0.00 30 1024.8
20181214225706 53 102 1.0 2.0 0.00 0.00 0.00 30 1024.8
20181214224807 53 109 1.0 7.0 0.00 0.00 0.00 29 1024.8
20181214223907 53 123 1.0 3.0 0.00 0.00 0.00 28 1025.0
20181214223006 53 119 3.0 5.0 0.00 0.00 0.00 28 1024.9
20181214222106 54 134 3.0 5.0 0.00 0.00 0.00 27 1024.8
20181214221206 54 122 3.0 5.0 0.00 0.00 0.00 26 1024.6
20181214220306 54 127 3.0 5.0 0.00 0.00 0.00 25 1024.7
20181214215406 54 126 4.0 8.0 0.00 0.00 0.00 25 1024.8
20181214214506 55 125 5.0 8.0 0.00 0.00 0.00 23 1024.8
20181214213606 56 101 4.0 8.0 0.00 0.00 0.00 24 1024.9
20181214212706 55 143 4.0 6.0 0.00 0.00 0.00 25 1025.0
20181214211806 55 114 4.0 6.0 0.00 0.00 0.00 26 1025.1
20181214210906 55 129 3.0 5.0 0.00 0.00 0.00 26 1025.0
20181214210006 55 138 4.0 6.0 0.00 0.00 0.00 27 1025.1
20181214205106 54 144 4.0 7.0 0.00 0.00 0.00 28 1025.3
20181214204206 54 152 4.0 8.0 0.00 0.00 0.00 26 1025.3
20181214203306 54 114 5.0 8.0 0.00 0.00 0.00 28 1025.2
20181214202406 54 120 6.0 9.0 0.00 0.00 0.00 27 1025.2
20181214201506 55 135 4.0 8.0 0.00 0.00 0.00 27 1025.5
20181214200606 54 144 2.0 5.0 0.00 0.00 0.00 27 1025.7
20181214195706 53 109 3.0 7.0 0.00 0.00 0.00 29 1025.7
20181214194806 53 102 4.0 8.0 0.00 0.00 0.00 27 1025.7
20181214193906 53 125 4.0 8.0 0.00 0.00 0.00 26 1025.9
20181214193007 52 124 3.0 8.0 0.00 0.00 0.00 28 1025.8
20181214192106 52 121 5.0 9.0 0.00 0.00 0.00 29 1026.0
20181214191206 52 125 5.0 8.0 0.00 0.00 0.00 28 1026.4
20181214190306 53 153 6.0 7.0 0.00 0.00 0.00 28 1026.6
20181214185406 53 136 6.0 10.0 0.00 0.00 0.00 30 1026.7
20181214184506 53 162 6.0 9.0 0.00 0.00 0.00 31 1026.7
20181214183606 52 127 6.0 8.0 0.00 0.00 0.00 32 1026.8
20181214182705 51 114 6.0 9.0 0.00 0.00 0.00 31 1027.0
20181214181806 51 125 6.0 9.0 0.00 0.00 0.00 31 1027.1
20181214180906 51 127 4.0 9.0 0.00 0.00 0.00 33 1027.4
20181214180006 51 89 3.0 6.0 0.00 0.00 0.00 28 1027.5
20181214175105 51 128 4.0 7.0 0.00 0.00 0.00 26 1027.7
20181214174205 51 101 2.0 9.0 0.00 0.00 0.00 27 1027.8
20181214173305 50 123 3.0 7.0 0.00 0.00 0.00 27 1028.0
20181214172405 51 98 2.0 9.0 0.00 0.00 0.00 27 1028.1
20181214171505 50 92 1.0 6.0 0.00 0.00 0.00 29 1028.2
20181214170605 50 108 1.0 3.0 0.00 0.00 0.00 27 1028.2
20181214165705 50 95 1.0 6.0 0.00 0.00 0.00 27 1028.3
20181214164805 49 129 2.0 5.0 0.00 0.00 0.00 27 1028.3
20181214163905 48 100 2.0 2.0 0.00 0.00 0.00 27 1028.1
20181214163006 49 90 2.0 7.0 0.00 0.00 0.00 27 1028.0
20181214162105 48 90 3.0 7.0 0.00 0.00 0.00 28 1027.9
20181214161205 48 77 2.0 7.0 0.00 0.00 0.00 28 1027.9
20181214160305 49 90 2.0 3.0 0.00 0.00 0.00 29 1027.8
20181214155405 49 0 0.0 0.0 0.00 0.00 0.00 29 1027.4
20181214154505 46 0 0.0 0.0 0.00 0.00 0.00 32 1027.2
20181214153605 44 0 0.0 0.0 0.00 0.00 0.00 40 1027.3
20181214152705 42 0 0.0 0.0 0.00 0.00 0.00 42 1027.3
20181214151805 39 0 0.0 0.0 0.00 0.00 0.00 47 1027.2
20181214150905 36 0 0.0 0.0 0.00 0.00 0.00 52 1027.1
20181214150005 34 0 0.0 0.0 0.00 0.00 0.00 56 1026.9
20181214145105 32 0 0.0 0.0 0.00 0.00 0.00 56 1026.8
20181214144205 29 0 0.0 0.0 0.00 0.00 0.00 58 1026.9
20181214143305 29 0 0.0 0.0 0.00 0.00 0.00 59 1026.8
20181214142405 29 0 0.0 0.0 0.00 0.00 0.00 56 1026.7
20181214141505 29 0 0.0 0.0 0.00 0.00 0.00 53 1026.7
20181214140605 30 0 0.0 0.0 0.00 0.00 0.00 53 1026.7
20181214135705 31 0 0.0 0.0 0.00 0.00 0.00 49 1026.6
20181214134805 33 0 0.0 0.0 0.00 0.00 0.00 45 1026.5
20181214133905 35 0 0.0 0.0 0.00 0.00 0.00 42 1026.4
20181214133005 36 0 0.0 0.0 0.00 0.00 0.00 41 1026.2
20181214132105 37 0 0.0 0.0 0.00 0.00 0.00 40 1026.1
20181214131205 38 0 0.0 0.0 0.00 0.00 0.00 40 1026.1
20181214130305 38 0 0.0 0.0 0.00 0.00 0.00 38 1025.9
20181214125405 38 0 0.0 2.0 0.00 0.00 0.00 39 1025.7
20181214124504 38 0 0.0 4.0 0.00 0.00 0.00 39 1025.7
20181214123605 39 69 1.0 4.0 0.00 0.00 0.00 39 1025.7
20181214122704 39 64 1.0 3.0 0.00 0.00 0.00 39 1025.5
20181214121804 39 68 2.0 4.0 0.00 0.00 0.00 39 1025.5
20181214120905 39 70 2.0 5.0 0.00 0.00 0.00 39 1025.3
20181214120005 38 73 1.0 4.0 0.00 0.00 0.00 41 1025.3
20181214115104 38 0 0.0 0.0 0.00 0.00 0.00 41 1025.2
20181214114204 38 0 0.0 0.0 0.00 0.00 0.00 40 1025.1
20181214113305 38 0 0.0 0.0 0.00 0.00 0.00 40 1025.1
20181214112405 37 0 0.0 3.0 0.00 0.00 0.00 41 1024.9
20181214111505 36 0 0.0 1.0 0.00 0.00 0.00 43 1024.9
20181214110604 33 0 0.0 2.0 0.00 0.00 0.00 47 1025.0
20181214105705 32 0 0.0 0.0 0.00 0.00 0.00 50 1025.0
20181214104804 32 0 0.0 0.0 0.00 0.00 0.00 50 1025.0
20181214103905 33 0 0.0 0.0 0.00 0.00 0.00 49 1025.1
20181214103004 34 0 0.0 0.0 0.00 0.00 0.00 47 1025.1
20181214102104 33 0 0.0 0.0 0.00 0.00 0.00 47 1025.1
20181214101204 33 0 0.0 0.0 0.00 0.00 0.00 47 1025.0
20181214100304 34 0 0.0 0.0 0.00 0.00 0.00 46 1025.0
20181214095404 34 0 0.0 0.0 0.00 0.00 0.00 43 1025.3
20181214094504 35 0 0.0 0.0 0.00 0.00 0.00 43 1025.4
20181214093604 36 0 0.0 0.0 0.00 0.00 0.00 41 1025.4
20181214092704 37 0 0.0 0.0 0.00 0.00 0.00 41 1025.2
20181214091804 38 0 0.0 1.0 0.00 0.00 0.00 40 1025.2
20181214090904 36 0 0.0 1.0 0.00 0.00 0.00 40 1025.6
20181214090004 34 0 0.0 1.0 0.00 0.00 0.00 42 1025.3
20181214085104 36 12 1.0 1.0 0.00 0.00 0.00 43 1025.1
20181214084204 35 0 0.0 1.0 0.00 0.00 0.00 41 1025.3
20181214083304 34 0 0.0 4.0 0.00 0.00 0.00 45 1025.0
20181214081504 30 0 0.0 0.0 0.00 0.00 0.00 50 1025.0
20181214080604 29 0 0.0 0.0 0.00 0.00 0.00 54 1024.9
20181214075704 30 0 0.0 0.0 0.00 0.00 0.00 51 1024.8
20181214074805 32 0 0.0 0.0 0.00 0.00 0.00 47 1025.2
20181214073904 34 0 0.0 0.0 0.00 0.00 0.00 43 1025.2
20181214073004 36 0 0.0 0.0 0.00 0.00 0.00 38 1025.2
20181214072104 38 0 0.0 1.0 0.00 0.00 0.00 37 1025.2